Weather History for Tel Aviv, Israel

Change the Weather History Date:

Friday, June 28, 2013

  Actual Average Record
Temperature  
Mean Temperature 80 °F -  
Max Temperature 86 °F 87 °F 95 °F (2007)
Min Temperature 73 °F 72 °F 68 °F (2005)
Cooling Degree Days 14    
Growing Degree Days 30 (Base 50)    
Moisture  
Dew Point 67 °F    
Average Humidity 66    
Maximum Humidity 83    
Minimum Humidity 43    
Precipitation  
Precipitation 0.00 in - - ()
Sea Level Pressure  
Sea Level Pressure 29.77 in    
Wind  
Wind Speed 6 mph ()    
Max Wind Speed 13 mph    
Max Gust Speed -    
Visibility 6.2 miles    
Events      
Averages and records for this station are not official NWS values.
T = Trace of Precipitation, MM = Missing Value Source: Averaged Metar Reports

Daily Weather History Graph

Daily Weather History Graph

Search for Another Location

Airport:

Trip Planner

Search our weather history database for the weather conditions in past years. The results will help you decide how hot, cold, wet, or windy it might be!

Date:

Astronomy

Jun. 28, 2013 Rise Set
Actual Time 5:36 AM IDT 7:50 PM IDT
Civil Twilight 5:08 AM IDT 8:18 PM IDT
Nautical Twilight 4:34 AM IDT 8:53 PM IDT
Astronomical Twilight 3:56 AM IDT 9:30 PM IDT
Moon 11:31 PM IDT 11:00 AM IDT
Length of Visible Light 15h 10m
Length of Day
14h 13m
Waning Gibbous, 69% of the Moon is Illuminated
Jun 28
Waning Gibbous
Jun 30
Last Quarter
Jul 8
New
Jul 16
First Quarter
Jul 22
Full

Hourly Weather History & Observations

Time (IDT) Temp. Heat Index Dew Point Humidity Pressure Visibility Wind Dir Wind Speed Gust Speed Precip Events Conditions
12:20 AM 75.2 °F - 68.0 °F 78% 29.80 in - Variable 3.5 mph - N/A   Clear
12:50 AM 77.0 °F - 68.0 °F 74% 29.77 in - Calm Calm - N/A   Clear
1:20 AM 77.0 °F - 68.0 °F 74% 29.77 in 6.2 mi Variable 3.5 mph - N/A   Partly Cloudy
1:50 AM 75.2 °F - 68.0 °F 78% 29.77 in 6.2 mi Variable 3.5 mph - N/A   Partly Cloudy
2:20 AM 75.2 °F - 68.0 °F 78% 29.80 in 6.2 mi Variable 2.3 mph - N/A   Mostly Cloudy
2:50 AM 75.2 °F - 68.0 °F 78% 29.77 in 6.2 mi Variable 3.5 mph - N/A   Mostly Cloudy
3:00 AM 75 °F - 68 °F 72% 29.79 in 6 mi 3.5 mph - -   Mostly Cloudy
3:50 AM 75.2 °F - 66.2 °F 73% 29.77 in 6.2 mi South 5.8 mph - N/A   Scattered Clouds
4:20 AM 73.4 °F - 66.2 °F 78% 29.77 in 6.2 mi South 5.8 mph - N/A   Scattered Clouds
4:50 AM 73.4 °F - 68.0 °F 83% 29.77 in 6.2 mi South 5.8 mph - N/A   Scattered Clouds
5:20 AM 73.4 °F - 68.0 °F 83% 29.77 in 6.2 mi South 4.6 mph - N/A   Scattered Clouds
5:50 AM 75.2 °F - 68.0 °F 78% 29.77 in 6.2 mi SSE 5.8 mph - N/A   Scattered Clouds
6:20 AM 73.4 °F - 68.0 °F 83% 29.77 in 6.2 mi South 5.8 mph - N/A   Partly Cloudy
6:50 AM 75.2 °F - 68.0 °F 78% 29.77 in 6.2 mi South 5.8 mph - N/A   Partly Cloudy
7:20 AM 75.2 °F - 68.0 °F 78% 29.77 in 6.2 mi South 6.9 mph - N/A   Partly Cloudy
7:50 AM 77.0 °F - 66.2 °F 69% 29.77 in 6.2 mi South 6.9 mph - N/A   Scattered Clouds
8:20 AM 78.8 °F - 68.0 °F 69% 29.77 in 6.2 mi South 5.8 mph - N/A   Mostly Cloudy
8:50 AM 78.8 °F - 66.2 °F 65% 29.77 in 6.2 mi WSW 6.9 mph - N/A   Scattered Clouds
9:00 AM 78 °F - 66 °F 59% 29.79 in 6 mi WSW 6.9 mph - -   Partly Cloudy
9:20 AM 80.6 °F 82.7 °F 66.2 °F 61% 29.77 in 6.2 mi SW 5.8 mph - N/A   Scattered Clouds
9:50 AM 82.4 °F 83.9 °F 64.4 °F 54% 29.77 in 6.2 mi SSW 4.6 mph - N/A   Scattered Clouds
10:20 AM 82.4 °F 83.9 °F 64.4 °F 54% 29.77 in 6.2 mi WSW 5.8 mph - N/A   Partly Cloudy
10:50 AM 84.2 °F 86.6 °F 66.2 °F 55% 29.77 in 6.2 mi West 9.2 mph - N/A   Partly Cloudy
11:20 AM 84.2 °F 86.6 °F 66.2 °F 55% 29.77 in 6.2 mi West 12.7 mph - N/A   Partly Cloudy
11:50 AM 84.2 °F 86.6 °F 66.2 °F 55% 29.77 in 6.2 mi West 10.4 mph - N/A   Partly Cloudy
12:20 PM 84.2 °F 86.6 °F 66.2 °F 55% 29.77 in 6.2 mi West 11.5 mph - N/A   Partly Cloudy
12:50 PM 84.2 °F 86.6 °F 66.2 °F 55% 29.77 in 6.2 mi West 8.1 mph - N/A   Partly Cloudy
1:20 PM 84.2 °F 86.6 °F 66.2 °F 55% 29.77 in 6.2 mi West 11.5 mph - N/A   Partly Cloudy
1:50 PM 84.2 °F 86.6 °F 66.2 °F 55% 29.77 in 6.2 mi WNW 10.4 mph - N/A   Partly Cloudy
2:20 PM 84.2 °F 86.6 °F 66.2 °F 55% 29.77 in 6.2 mi West 11.5 mph - N/A   Partly Cloudy
2:50 PM 86.0 °F 88.2 °F 66.2 °F 51% 29.77 in 6.2 mi WNW 12.7 mph - N/A   Partly Cloudy
3:00 PM 85 °F - 66 °F 43% 29.76 in 6 mi WNW 12.7 mph - -   Scattered Clouds
3:20 PM 84.2 °F 86.6 °F 66.2 °F 55% 29.74 in 6.2 mi West 10.4 mph - N/A   Partly Cloudy
3:50 PM 84.2 °F 86.6 °F 66.2 °F 55% 29.74 in - WNW 11.5 mph - N/A   Clear
4:20 PM 84.2 °F 86.6 °F 66.2 °F 55% 29.74 in - NW 11.5 mph - N/A   Clear
4:50 PM 84.2 °F 86.6 °F 66.2 °F 55% 29.74 in - WNW 8.1 mph - N/A   Clear
5:20 PM 84.2 °F 86.6 °F 66.2 °F 55% 29.74 in - WNW 9.2 mph - N/A   Clear
5:50 PM 84.2 °F 87.3 °F 68.0 °F 58% 29.74 in 6.2 mi WNW 9.2 mph - N/A   Partly Cloudy
6:20 PM 82.4 °F 85.4 °F 68.0 °F 62% 29.74 in 6.2 mi WNW 10.4 mph - N/A   Partly Cloudy
6:50 PM 82.4 °F 85.4 °F 68.0 °F 62% 29.74 in 6.2 mi WNW 11.5 mph - N/A   Partly Cloudy
7:20 PM 80.6 °F 83.2 °F 68.0 °F 65% 29.74 in 6.2 mi WNW 10.4 mph - N/A   Scattered Clouds
7:50 PM 80.6 °F 83.9 °F 69.8 °F 70% 29.77 in 6.2 mi WNW 8.1 mph - N/A   Scattered Clouds
8:20 PM 78.8 °F - 69.8 °F 74% 29.77 in 6.2 mi West 5.8 mph - N/A   Partly Cloudy
8:50 PM 80.6 °F 83.9 °F 69.8 °F 70% 29.77 in 6.2 mi West 4.6 mph - N/A   Partly Cloudy
9:00 PM 80 °F - 70 °F 63% 29.78 in 6 mi West 4.6 mph - -   Scattered Clouds
9:20 PM 80.6 °F 83.9 °F 69.8 °F 70% 29.77 in 6.2 mi Variable 3.5 mph - N/A   Partly Cloudy
9:50 PM 80.6 °F 83.9 °F 69.8 °F 70% 29.77 in - Variable 3.5 mph - N/A   Clear
10:20 PM 78.8 °F - 69.8 °F 74% 29.77 in - SSW 4.6 mph - N/A   Clear
10:50 PM 78.8 °F - 69.8 °F 74% 29.77 in 6.2 mi South 4.6 mph - N/A   Scattered Clouds
11:20 PM 78.8 °F - 69.8 °F 74% 29.77 in 6.2 mi SSW 4.6 mph - N/A   Scattered Clouds
11:50 PM 78.8 °F - 69.8 °F 74% 29.77 in 6.2 mi Variable 3.5 mph - N/A   Scattered Clouds